Location: Unspecified
(33.6682°S, 0.0000°E)
Time: 20:14:25
(UTC+00:00)

Tiros 1 despin weight - Pass Details

Date: 21 June 2019
Orbit: 594 x 642 km, 48.2° (Epoch: 21 July)

Event Time Altitude Azimuth Distance (km) Brightness Sun altitude
Rises 11:32:33 0° 288° (WNW) 2,918 ? 32.5°
Reaches altitude 10° 11:34:58 10° 281° (W) 2,022 ? 32.5°
Maximum altitude 11:39:22 40° 211° (SSW) 955 ? 32.6°
Drops below altitude 10° 11:43:50 10° 140° (SE) 2,055 ? 32.7°
Sets 11:46:19 0° 133° (SE) 2,971 ? 32.8°
